Location: Dallas(GA)
(33.9240°N, 84.8410°W)
Time: 02:48:26
(UTC-04:00)

X-37B - Visible Passes

Search period start: 28 September 2020 00:00
Search period end: 08 October 2020 00:00
Orbit: 386 x 387 km, 45.0° (Epoch: 18 September)

Date Brightness Start Highest point End Pass type
(mag) Time Alt. Az. Time Alt. Az. Time Alt. Az.
29 Sep 2.4 21:00:14 10° SW 21:01:41 23° SSW 21:01:41 23° SSW visible
30 Sep 2.2 20:02:24 10° S 20:04:48 20° SE 20:06:27 14° E visible
30 Sep 3.8 21:38:13 10° W 21:38:45 14° W 21:38:45 14° W visible
01 Oct 0.5 20:39:28 10° WSW 20:42:38 85° NNW 20:43:20 51° NE visible
02 Oct 2.9 21:18:08 10° W 21:20:04 22° NW 21:20:04 22° NW visible
03 Oct 1.6 20:19:06 10° W 20:22:07 41° NNW 20:24:23 16° NE visible
04 Oct 3.0 20:58:15 10° WNW 21:00:28 17° NNW 21:00:52 17° N visible
05 Oct 2.5 19:59:00 10° W 20:01:42 25° NNW 20:04:24 10° NE visible
06 Oct 3.2 20:38:32 10° NW 20:40:11 13° N 20:41:19 12° NNE visible
07 Oct 3.0 19:39:08 10° WNW 19:41:21 17° NNW 19:43:34 10° NNE visible
